Weather History for Fort Yukon, AK

Change the Weather History Date:

Thursday, January 12, 2012

  Actual Average Record
Temperature  
Mean Temperature 0 °F -  
Max Temperature 6 °F -8 °F 6 °F (2002)
Min Temperature -5 °F -20 °F -56 °F (2000)
Degree Days  
Heating Degree Days 64    
Moisture  
Dew Point -10 °F    
Average Humidity 69    
Maximum Humidity 79    
Minimum Humidity 60    
Precipitation  
Precipitation 0.00 in - - ()
Sea Level Pressure  
Sea Level Pressure 29.81 in    
Wind  
Wind Speed 8 mph (WSW)    
Max Wind Speed 13 mph    
Max Gust Speed 18 mph    
Visibility 5 miles    
Events Snow    
Averages and records for this station are not official NWS values.
T = Trace of Precipitation, MM = Missing Value Source: NWS Daily Summary

Daily Weather History Graph

Daily Weather History Graph

Search for Another Location

Airport:

Trip Planner

Search our weather history database for the weather conditions in past years. The results will help you decide how hot, cold, wet, or windy it might be!

Date:

Astronomy

Jan. 12, 2012 Rise Set
Actual Time 10:53 AM AKST 2:45 PM AKST
Civil Twilight 9:26 AM AKST 4:12 PM AKST
Nautical Twilight 8:12 AM AKST 5:27 PM AKST
Astronomical Twilight 7:07 AM AKST 6:31 PM AKST
Moon 9:39 PM AKST (1/12) 10:18 AM AKST (1/12)
Length of Visible Light 6h 46m
Length of Day
3h 51m
Waning Gibbous, 86% of the Moon is Illuminated
Jan 12
Waning Gibbous
Jan 16
Last Quarter
Jan 22
New
Jan 30
First Quarter
Feb 7
Full

Hourly Weather History & Observations

Time (AKST) Temp. Windchill Dew Point Humidity Pressure Visibility Wind Dir Wind Speed Gust Speed Precip Events Conditions
12:16 AM 6.8 °F -4.8 °F 1.4 °F 79% 29.71 in 3.0 mi West 6.9 mph - N/A   Overcast
12:36 AM 6.8 °F -3.5 °F 1.4 °F 79% 29.72 in 2.0 mi West 5.8 mph - N/A   Overcast
12:56 AM 6.8 °F -7.8 °F 1.4 °F 79% 29.72 in 4.0 mi West 10.4 mph 16.1 mph N/A   Overcast
1:16 AM 6.8 °F -3.5 °F 1.4 °F 79% 29.73 in 4.0 mi West 5.8 mph - N/A   Overcast
1:36 AM 6.8 °F -6.9 °F -0.4 °F 72% 29.72 in 4.0 mi West 9.2 mph 17.3 mph N/A   Overcast
1:56 AM 6.8 °F -3.5 °F -0.4 °F 72% 29.72 in 5.0 mi West 5.8 mph - N/A   Overcast
2:16 AM 6.8 °F -5.9 °F -0.4 °F 72% 29.73 in 3.0 mi West 8.1 mph - N/A   Overcast
2:36 AM 5.0 °F -9.1 °F -2.2 °F 72% 29.73 in 4.0 mi West 9.2 mph - N/A   Overcast
2:56 AM 5.0 °F -6.9 °F -0.4 °F 78% 29.73 in 4.0 mi WSW 6.9 mph - N/A   Overcast
3:16 AM 5.0 °F -6.9 °F -2.2 °F 72% 29.74 in 2.5 mi WSW 6.9 mph - N/A   Overcast
3:36 AM 3.2 °F -9.1 °F -2.2 °F 78% 29.73 in 4.0 mi West 6.9 mph - N/A   Overcast
3:56 AM 3.2 °F -10.3 °F -4.0 °F 72% 29.73 in 10.0 mi WSW 8.1 mph - N/A   Mostly Cloudy
4:16 AM 3.2 °F -11.3 °F -5.8 °F 66% 29.73 in 3.0 mi WSW 9.2 mph - N/A   Overcast
4:36 AM 1.4 °F -13.5 °F -5.8 °F 72% 29.74 in 3.0 mi West 9.2 mph - N/A   Overcast
4:56 AM 1.4 °F -13.5 °F -5.8 °F 72% 29.74 in 4.0 mi WSW 9.2 mph - N/A   Overcast
5:16 AM 1.4 °F -13.5 °F -7.6 °F 66% 29.74 in 8.0 mi West 9.2 mph 17.3 mph N/A   Overcast
5:36 AM 1.4 °F -15.3 °F -5.8 °F 72% 29.74 in 10.0 mi West 11.5 mph 17.3 mph N/A   Overcast
5:56 AM 1.4 °F -11.3 °F -5.8 °F 72% 29.74 in 10.0 mi West 6.9 mph - N/A   Overcast
6:16 AM 1.4 °F -13.5 °F -7.6 °F 66% 29.75 in 9.0 mi West 9.2 mph - N/A   Overcast
6:36 AM 1.4 °F -14.5 °F -7.6 °F 66% 29.75 in 10.0 mi West 10.4 mph - N/A   Overcast
6:56 AM 1.4 °F -14.5 °F -7.6 °F 66% 29.75 in 3.0 mi West 10.4 mph 16.1 mph N/A   Overcast
7:16 AM -0.4 °F -17.6 °F -7.6 °F 72% 29.75 in 8.0 mi West 11.5 mph 18.4 mph N/A   Overcast
7:36 AM -0.4 °F -13.4 °F -9.4 °F 66% 29.76 in 9.0 mi West 6.9 mph 16.1 mph N/A   Overcast
7:56 AM -0.4 °F -10.4 °F -7.6 °F 72% 29.76 in 9.0 mi WSW 4.6 mph - N/A   Mostly Cloudy
8:16 AM -0.4 °F -18.4 °F -9.4 °F 66% 29.77 in 10.0 mi West 12.7 mph 17.3 mph N/A   Overcast
8:32 AM -0.4 °F -15.7 °F -9.4 °F 66% 29.77 in 3.0 mi SW 9.2 mph - N/A Snow Light Snow
8:36 AM -0.4 °F -16.7 °F -9.4 °F 66% 29.77 in 3.0 mi West 10.4 mph - N/A   Overcast
8:53 AM -2.2 °F -14.2 °F -11.2 °F 66% 29.77 in 8.0 mi SW 5.8 mph - N/A Snow Light Snow
8:56 AM -2.2 °F -16.8 °F -11.2 °F 66% 29.77 in 9.0 mi WSW 8.1 mph - N/A   Mostly Cloudy
9:05 AM -2.2 °F -14.2 °F -9.4 °F 71% 29.77 in 9.0 mi SW 5.8 mph 17.3 mph N/A Snow Light Snow
9:16 AM -2.2 °F -18.0 °F -11.2 °F 66% 29.77 in 4.0 mi West 9.2 mph 16.1 mph N/A   Overcast
9:36 AM -2.2 °F -18.0 °F -9.4 °F 71% 29.79 in 5.0 mi West 9.2 mph - N/A   Overcast
9:56 AM -2.2 °F -15.6 °F -11.2 °F 66% 29.79 in 5.0 mi West 6.9 mph - N/A   Overcast
10:11 AM -2.2 °F -15.6 °F -9.4 °F 71% 29.79 in 2.5 mi SW 6.9 mph - N/A Snow Light Snow
10:16 AM -2.2 °F -16.8 °F -9.4 °F 71% 29.79 in 2.0 mi WSW 8.1 mph - N/A   Overcast
10:24 AM -2.2 °F -18.9 °F -11.2 °F 66% 29.79 in 3.0 mi WSW 10.4 mph - N/A Snow Light Snow
10:32 AM -2.2 °F -18.9 °F -11.2 °F 66% 29.80 in 4.0 mi SW 10.4 mph - N/A Snow Light Snow
10:36 AM -2.2 °F -18.9 °F -13.0 °F 60% 29.80 in 6.0 mi West 10.4 mph - N/A   Mostly Cloudy
10:56 AM -2.2 °F -18.0 °F -11.2 °F 66% 29.80 in 10.0 mi WSW 9.2 mph - N/A   Overcast
11:10 AM -4.0 °F -19.0 °F -13.0 °F 65% 29.81 in 2.0 mi SW 8.1 mph - N/A Snow Light Snow
11:16 AM -4.0 °F -21.2 °F -13.0 °F 65% 29.81 in 1.8 mi WSW 10.4 mph - N/A   Overcast
11:19 AM -4.0 °F -21.2 °F -11.2 °F 71% 29.81 in 2.0 mi SW 10.4 mph - N/A Snow Light Snow
11:36 AM -4.0 °F -21.2 °F -13.0 °F 65% 29.81 in 2.0 mi West 10.4 mph 17.3 mph N/A   Overcast
11:39 AM -4.0 °F -20.2 °F -13.0 °F 65% 29.82 in 1.8 mi SW 9.2 mph 17.3 mph N/A Snow Light Snow
11:56 AM -4.0 °F -20.2 °F -11.2 °F 71% 29.82 in 1.5 mi West 9.2 mph 17.3 mph N/A   Overcast
12:16 PM -5.8 °F -25.2 °F -13.0 °F 71% 29.83 in 2.0 mi West 12.7 mph 16.1 mph N/A   Overcast
12:24 PM -5.8 °F -19.9 °F -14.8 °F 65% 29.84 in 1.2 mi SW 6.9 mph - N/A Snow Light Snow
12:28 PM -5.8 °F -23.4 °F -14.8 °F 65% 29.84 in 3.0 mi SW 10.4 mph - N/A Snow Light Snow
12:36 PM -5.8 °F -18.4 °F -13.0 °F 71% 29.84 in 3.0 mi West 5.8 mph - N/A   Mostly Cloudy
12:56 PM -5.8 °F -22.4 °F -11.2 °F 77% 29.84 in 5.0 mi West 9.2 mph - N/A   Mostly Cloudy
1:16 PM -5.8 °F -23.4 °F -13.0 °F 71% 29.85 in 10.0 mi West 10.4 mph 17.3 mph N/A   Overcast
1:36 PM -5.8 °F -22.4 °F -14.8 °F 65% 29.86 in 10.0 mi West 9.2 mph 17.3 mph N/A   Mostly Cloudy
1:56 PM -5.8 °F -22.4 °F -14.8 °F 65% 29.87 in 8.0 mi West 9.2 mph - N/A   Mostly Cloudy
2:16 PM -5.8 °F -22.4 °F -13.0 °F 71% 29.87 in 7.0 mi West 9.2 mph - N/A   Mostly Cloudy
2:36 PM -5.8 °F -22.4 °F -13.0 °F 71% 29.88 in 7.0 mi West 9.2 mph - N/A   Mostly Cloudy
2:56 PM -5.8 °F -22.4 °F -14.8 °F 65% 29.89 in 3.0 mi West 9.2 mph 16.1 mph N/A   Mostly Cloudy
3:16 PM -5.8 °F -19.9 °F -13.0 °F 71% 29.90 in 10.0 mi West 6.9 mph - N/A   Mostly Cloudy
3:36 PM -5.8 °F -23.4 °F -14.8 °F 65% 29.90 in 3.0 mi West 10.4 mph - N/A   Overcast
3:43 PM -5.8 °F -25.2 °F -14.8 °F 65% 29.91 in 2.0 mi WSW 12.7 mph - N/A Snow Light Snow
3:46 PM -5.8 °F -23.4 °F -14.8 °F 65% 29.91 in 1.5 mi WSW 10.4 mph - N/A Snow Light Snow
3:56 PM -5.8 °F -22.4 °F -14.8 °F 65% 29.91 in 1.0 mi West 9.2 mph 17.3 mph N/A   Overcast
4:10 PM -5.8 °F -23.4 °F -14.8 °F 65% 29.92 in 2.0 mi WSW 10.4 mph 17.3 mph N/A Snow Light Snow
4:16 PM -5.8 °F -25.2 °F -14.8 °F 65% 29.92 in 3.0 mi West 12.7 mph 16.1 mph N/A   Overcast
4:17 PM -5.8 °F -25.2 °F -14.8 °F 65% 29.92 in 3.0 mi WSW 12.7 mph 16.1 mph N/A Snow Light Snow
4:28 PM -5.8 °F -24.4 °F -14.8 °F 65% 29.92 in 2.5 mi WSW 11.5 mph 17.3 mph N/A Snow Light Snow
4:36 PM -5.8 °F -22.4 °F -14.8 °F 65% 29.93 in 2.5 mi West 9.2 mph - N/A   Overcast
4:44 PM -5.8 °F -22.4 °F -14.8 °F 65% 29.93 in 3.0 mi WSW 9.2 mph - N/A Snow Light Snow
4:56 PM -5.8 °F -21.2 °F -14.8 °F 65% 29.93 in 2.5 mi West 8.1 mph - N/A   Overcast
5:16 PM -5.8 °F -19.9 °F -14.8 °F 65% 29.95 in 3.0 mi West 6.9 mph 17.3 mph N/A   Mostly Cloudy
5:36 PM -5.8 °F -22.4 °F -14.8 °F 65% 29.95 in 3.0 mi West 9.2 mph - N/A   Mostly Cloudy
5:56 PM -5.8 °F -21.2 °F -16.6 °F 60% 29.97 in 3.0 mi West 8.1 mph - N/A   Overcast
6:16 PM -7.6 °F -27.5 °F -14.8 °F 71% 29.97 in 3.0 mi West 12.7 mph 18.4 mph N/A   Overcast
6:36 PM -7.6 °F -25.7 °F -16.6 °F 65% 29.99 in 3.0 mi West 10.4 mph 21.9 mph N/A   Overcast
6:56 PM -7.6 °F -23.4 °F -14.8 °F 71% 30.00 in 4.0 mi West 8.1 mph - N/A   Overcast
7:16 PM -7.6 °F -26.6 °F -16.6 °F 65% 30.01 in 4.0 mi West 11.5 mph 19.6 mph N/A   Overcast
7:36 PM -7.6 °F -25.7 °F -16.6 °F 65% 30.01 in 9.0 mi West 10.4 mph 18.4 mph N/A   Mostly Cloudy
7:56 PM -7.6 °F -27.5 °F -16.6 °F 65% 30.03 in 9.0 mi West 12.7 mph 19.6 mph N/A   Overcast
8:16 PM -7.6 °F -29.1 °F -16.6 °F 65% 30.04 in 6.0 mi West 15.0 mph 19.6 mph N/A   Overcast
8:36 PM -7.6 °F -24.6 °F -18.4 °F 59% 30.05 in 9.0 mi West 9.2 mph - N/A   Overcast
8:56 PM -7.6 °F -25.7 °F -16.6 °F 65% 30.05 in 7.0 mi West 10.4 mph 20.7 mph N/A   Overcast
9:16 PM -7.6 °F -26.6 °F -18.4 °F 59% 30.06 in 8.0 mi West 11.5 mph 18.4 mph N/A   Overcast
9:36 PM -9.4 °F -25.6 °F -16.6 °F 71% 30.07 in 3.0 mi West 8.1 mph - N/A   Overcast
9:56 PM -9.4 °F -28.9 °F -18.4 °F 65% 30.08 in 5.0 mi West 11.5 mph - N/A   Overcast
10:16 PM -9.4 °F -26.8 °F -18.4 °F 65% 30.09 in 6.0 mi West 9.2 mph - N/A   Overcast
10:36 PM -9.4 °F -29.8 °F -18.4 °F 65% 30.10 in 4.0 mi West 12.7 mph 18.4 mph N/A   Overcast
10:56 PM -9.4 °F -28.9 °F -18.4 °F 65% 30.11 in 2.5 mi West 11.5 mph - N/A   Overcast
11:16 PM -9.4 °F -25.6 °F -20.2 °F 59% 30.13 in 5.0 mi West 8.1 mph 16.1 mph N/A   Overcast
11:36 PM -9.4 °F -26.8 °F -20.2 °F 59% 30.13 in 4.0 mi West 9.2 mph - N/A   Overcast
11:56 PM -11.2 °F -26.4 °F -18.4 °F 70% 30.15 in 7.0 mi West 6.9 mph - N/A   Overcast